TimeEDT,TemperatureF,Dew PointF,Humidity,Sea Level PressureIn,VisibilityMPH,Wind Direction,Wind SpeedMPH,Gust SpeedMPH,PrecipitationIn,Events,Conditions,WindDirDegrees,DateUTC
1:53 AM,61.0,52.0,72,30.05,10.0,South,4.6,-,N/A,,Overcast,190,2012-10-14 05:53:00
2:53 AM,61.0,52.0,72,30.05,10.0,South,6.9,-,N/A,,Overcast,180,2012-10-14 06:53:00
3:53 AM,61.0,52.0,72,30.03,10.0,South,6.9,-,N/A,,Overcast,170,2012-10-14 07:53:00
4:53 AM,61.0,52.0,72,30.03,10.0,South,9.2,-,N/A,,Mostly Cloudy,170,2012-10-14 08:53:00
5:53 AM,62.1,52.0,70,30.04,10.0,South,9.2,-,N/A,,Overcast,190,2012-10-14 09:53:00
6:53 AM,61.0,52.0,72,30.04,10.0,South,10.4,-,N/A,,Overcast,170,2012-10-14 10:53:00
7:53 AM,59.0,51.1,75,30.04,10.0,South,11.5,-,N/A,,Mostly Cloudy,180,2012-10-14 11:53:00
8:53 AM,61.0,51.1,70,30.04,10.0,South,10.4,-,N/A,,Scattered Clouds,180,2012-10-14 12:53:00
9:53 AM,62.1,52.0,70,30.03,10.0,South,9.2,-,N/A,,Scattered Clouds,180,2012-10-14 13:53:00
10:53 AM,64.9,53.1,65,30.00,10.0,South,11.5,-,N/A,,Partly Cloudy,190,2012-10-14 14:53:00
11:53 AM,70.0,55.0,59,29.97,10.0,South,18.4,29.9,N/A,,Clear,190,2012-10-14 15:53:00
12:53 PM,72.0,55.0,55,29.93,10.0,SSW,19.6,28.8,N/A,,Clear,210,2012-10-14 16:53:00
1:53 PM,75.0,55.9,51,29.88,10.0,South,19.6,31.1,N/A,,Clear,190,2012-10-14 17:53:00
2:53 PM,75.0,54.0,48,29.84,10.0,SSW,16.1,34.5,N/A,,Partly Cloudy,210,2012-10-14 18:53:00
4:53 PM,73.9,55.0,52,29.79,10.0,South,13.8,26.5,0.00,,Overcast,190,2012-10-14 20:53:00
5:53 PM,72.0,55.9,57,29.78,10.0,South,19.6,28.8,0.00,Rain,Light Rain,180,2012-10-14 21:53:00
6:53 PM,72.0,55.0,55,29.76,10.0,SSW,19.6,27.6,0.00,,Overcast,200,2012-10-14 22:53:00
7:53 PM,71.1,55.0,57,29.73,10.0,South,17.3,24.2,N/A,,Mostly Cloudy,190,2012-10-14 23:53:00
8:53 PM,71.1,55.0,57,29.72,10.0,South,25.3,36.8,N/A,,Mostly Cloudy,190,2012-10-15 00:53:00
9:53 PM,64.9,59.0,81,29.73,10.0,SSW,12.7,-,0.01,,Mostly Cloudy,200,2012-10-15 01:53:00
10:53 PM,68.0,57.0,68,29.71,10.0,South,15.0,-,N/A,,Mostly Cloudy,190,2012-10-15 02:53:00
11:53 PM,69.1,57.0,65,29.70,10.0,SSW,13.8,23.0,0.00,Rain,Light Rain,210,2012-10-15 03:53:00